{"data":{"norad_id":56376,"intl_designator":"2023-061C","name":"STARLINK-6188","alt_names":[],"object_type":"PAYLOAD","status":"ACTIVE","operator":null,"country":"US","launch_date":"2023-05-04","launch_site_code":"AFETR","launch_vehicle":null,"mission":null,"orbit_class":"UNKNOWN","rcs_meters":null,"size_class":null,"mass_kg":null,"dimensions":null,"purposes":["comms"],"wikipedia_slug":null,"has_3d_model":false,"image_url":null,"decayed_at":null,"tle_current":{"epoch":"2026-05-24T09:48:37.179360Z","epoch_age_seconds":126231,"freshness":"FRESH","line1":"1 56376U 23061C   26144.40876365 -.00004788  00000+0 -16451-3 0  9993","line2":"2 56376  43.0041 129.9591 0001123 276.5502  83.5222 15.27596660168331","mean_motion":15.2759666,"eccentricity":0.0001123,"inclination_deg":43.0041,"raan_deg":129.9591,"arg_perigee_deg":276.5502,"mean_anomaly_deg":83.5222,"bstar":-0.00016451,"rev_number":16833,"period_min":94.265720638588,"perigee_km":482.2287048632,"apogee_km":483.76971605607,"semimajor_km":6861.1362104596,"source":"CELESTRAK","updated_at":"2026-05-25T13:38:18.010551Z"}}}